"Pseudo-MPEC" for C1C7EZ5

Created 2026 Mar 17 13:35:04 UT using Find_Orb

Click here for an explanation of pseudo-MPECs

 
 Astrometry: 
     C1C7EZ5 0C2026 02 17.40477011 11 13.234+25 15 06.29   ~35L5 23.24GVNEOCPF52
     C1C7EZ5 0C2026 02 17.42822311 11 08.509+25 16 23.95   ~35L5 22.08GVNEOCPF52
     C1C7EZ5 0C2026 02 17.43988411 11 06.161+25 17 02.61   ~35L5 21.55GVNEOCPF52
     C1C7EZ5*1C2026 02 23.43026510 46 51.931+31 16 04.58   ~2NB5 21.49GVNEOCPV00
     C1C7EZ5 1C2026 02 23.43585110 46 50.257+31 16 26.47   ~2NB5 21.67GVNEOCPV00
     C1C7EZ5 1C2026 02 23.44143010 46 48.572+31 16 47.68   ~2NB5 21.70GVNEOCPV00
     C1C7EZ5 1C2026 02 23.44701410 46 46.902+31 17 09.42   ~2NB5 21.48GVNEOCPV00
     C1C7EZ5  C2026 02 23.47797410 46 37.608+31 19 07.57   ~2NC5 22.0 GWNEOCPH01
     C1C7EZ5  C2026 02 23.48166610 46 36.479+31 19 21.95   ~2NC5 21.2 GWNEOCPH01
     C1C7EZ5  C2026 02 23.49567810 46 32.301+31 20 15.89   ~2NC5 21.8 GWNEOCPH01
     C1C7EZ5  C2026 02 23.49927810 46 31.241+31 20 29.74   ~2NC5 21.6 GWNEOCPH01
     C1C7EZ5 0C2026 02 24.14591010 43 18.510+32 02 43.20   ~2O4Z 22.5 RVNEOCP291
     C1C7EZ5 0C2026 02 24.15624010 43 15.280+32 03 24.30   ~2O4Z 21.9 RVNEOCP291
     C1C7EZ5 0C2026 02 24.16661010 43 12.040+32 04 05.30   ~2O4Z 21.7 RVNEOCP291
     C1C7EZ5 KC2026 02 24.20228010 43 00.49 +32 06 27.0    ~2O5K 22.0 GVNEOCPH21
     C1C7EZ5 KC2026 02 24.20536110 42 59.54 +32 06 39.1    ~2O5K 21.8 GVNEOCPH21
     C1C7EZ5 1C2026 02 25.21402210 37 38.089+33 13 34.61   ~2P65 21.93GVNEOCPI52
     C1C7EZ5 1C2026 02 25.22118910 37 35.731+33 14 04.67   ~2P65 21.87GVNEOCPI52
     C1C7EZ5 1C2026 02 25.22836210 37 33.305+33 14 33.50   ~2P65 21.45GVNEOCPI52
     C1C7EZ5 1C2026 02 25.23552610 37 30.889+33 15 02.48   ~2P65 21.82GVNEOCPI52
     C1C7EZ5 1C2026 02 26.28708310 31 31.912+34 25 56.75   ~2Q7o 21.58GVNEOCPV00
     C1C7EZ5 1C2026 02 26.29269310 31 29.874+34 26 19.79   ~2Q7o 21.36GVNEOCPV00
     C1C7EZ5 1C2026 02 26.29827410 31 27.851+34 26 42.43   ~2Q7o 21.59GVNEOCPV00
     C1C7EZ5 1C2026 02 26.30386310 31 25.849+34 27 05.33   ~2Q7o 21.73GVNEOCPV00
     C1C7EZ5 0C2026 03 04.36025109 48 29.366+41 20 05.88   ~3BH5 21.07GVNEOCPF52
     C1C7EZ5 KB2026 03 05.79413 09 36 01.20 +42 53 07.1    ~35JZ 19.7 RZNEOCP106
     C1C7EZ5 KB2026 03 05.79742 09 35 59.44 +42 53 19.0    ~35JZ 20.5 RZNEOCP106
     C1C7EZ5 KB2026 03 05.80071 09 35 57.64 +42 53 32.3    ~35JZ 20.5 RZNEOCP106
     C1C7EZ5 KB2026 03 05.80385 09 35 55.88 +42 53 44.4    ~35JZ 21.0 RZNEOCP106
     C1C7EZ5 0C2026 03 06.36826709 30 45.280+43 29 26.49   ~3BH5 21.58GVNEOCPF51
     C1C7EZ5 KC2026 03 08.19618109 13 04.588+45 18 41.94   ~3855 22.0 GWNEOCPH01
     C1C7EZ5 KC2026 03 08.20301509 13 00.402+45 19 05.60   ~3855 22.0 GWNEOCPH01
     C1C7EZ5 KC2026 03 09.90786608 55 15.494+46 51 11.45   ~39NZ 21.46GXNEOCPM57
     C1C7EZ5 KC2026 03 09.92032508 55 07.344+46 51 49.03   ~39NZ 20.97GXNEOCPM57
     C1C7EZ5 KC2026 03 09.93312708 54 58.994+46 52 27.59   ~39NZ 21.35GXNEOCPM57
     C1C7EZ5 KC2026 03 12.14996708 30 22.360+48 34 25.82   ~3C4K 21.9 GWNEOCPH01
     C1C7EZ5 KC2026 03 12.15545308 30 18.533+48 34 39.53   ~3C4K 22.3 GWNEOCPH01
     C1C7EZ5 KC2026 03 12.16375408 30 12.750+48 34 59.82   ~3C4K 22.0 GWNEOCPH01
     C1C7EZ5 KC2026 03 12.17292208 30 06.339+48 35 22.55   ~3C4K 22.2 GWNEOCPH01

Station data:
(106) Črni Vrh  (N45.945905 E14.071100)  Slovenia.  Observer J. Skvarč. 0.6-m
   f/3.3 Deltagraph + CCD.
(291) LPL/Spacewatch II  (N31.961669 W111.599905)  US/Arizona.  Observers J.
   V. Scotti, R. S. McMillan. 1.8-m f/2.7 reflector + CCD.
(F51) Pan-STARRS 1, Haleakala  (N20.707234 W156.255910)  US/Hawaii.
   Observers J. Herman, T. Lowe, P. Minguez, A. Schultz, I. Smith. Measurers
   K. Chambers, T. de Boer, J. Fairlamb, H. Gao, M. Huber, C.-C. Lin, E.
   Magnier, Y. Ramanjooloo, R. Wainscoat, R. Weryk. 1.8-m Ritchey-Chrétien +
   CCD.
(F52) Pan-STARRS 2, Haleakala  (N20.707382 W156.255910)  US/Hawaii.
   Observers J. Herman, T. Lowe, P. Minguez, A. Schultz, I. Smith. Measurers
   K. Chambers, T. de Boer, J. Fairlamb, H. Gao, M. Huber, C.-C. Lin, E.
   Magnier, Y. Ramanjooloo, R. Wainscoat, R. Weryk. 1.8-m Ritchey-Chrétien +
   CCD.
(H01) Magdalena Ridge Observatory, Socorro  (N33.984833 W107.189333)  US/New
   Mexico.  Observers W. H. Ryan, E. V. Ryan. Measurer W. H. Ryan. 2.4-m
   f/8.9 reflector + CCD.
(H21) Astronomical Research Observatory, Westfield  (N39.483054 W87.968270)
   US/Illinois.  Observer R. Holmes. Measurers S. Foglia, L. Buzzi, T.
   Linder, R. Holmes. 0.40-m f/5.32 astrograph + CCD.
(I52) Steward Observatory, Mt. Lemmon Station  (N32.442570 W110.788920)
   US/Arizona. Measurers T. Beuden, V. F. Carvajal, D. Fay, J. B. Fazekas, D.
   C. Fuls, A. R. Gibbs, A. D. Grauer, H. Gröller, J. K. Hogan, R. A.
   Kowalski, S. M. Larson, G. J. Leonard, D. Rankin, R. L. Seaman, F. C.
   Shelly, K. W. Wierzchoś. 1.0-m prime focus + CCD.
(M57) Wide-field Mufara Telescope, Isnello  (N37.868879 E14.020200)  Italy.
   Observer A. Nastasi. 1.00-m f/2.1 reflector + CCD.
(V00) Kitt Peak-Bok  (N31.963125 W111.600190)  US/Arizona. Measurers T.
   Beuden, V. F. Carvajal, D. Fay, J. B. Fazekas, D. C. Fuls, A. R. Gibbs, A.
   D. Grauer, H. Gröller, J. K. Hogan, R. A. Kowalski, S. M. Larson, G. J.
   Leonard, D. Rankin, R. L. Seaman, F. C. Shelly, K. W. Wierzchoś. 2.25-m
   reflector + 4x4K mosaic CCD.

Orbital elements:  C1C7EZ5
   Perihelion 2026 May 7.362642 +/- 0.00522 TT =  8:42:12.3 (JD 2461167.862642)
Epoch 2026 Mar 12.0 TT = JDT 2461111.5   Earth MOID: 0.1970      AutoNEOCP
M 320.487273921 +/- 0.018           (J2000 ecliptic)
n   0.701044599 +/- 0.000255        Peri.  175.399044 +/- 0.0046
a   1.254986200 +/- 0.000304        Node   135.677727 +/- 0.010
e   0.88049700 +/- 0.000103         Incl.   22.624750 +/- 0.015
P   1.406/513.510d         H 21.81  G  0.15   U  7.2
q 0.149974613 +/- 9.28e-5    Q 2.359997787 +/- 0.000701
From 39 observations 2026 Feb. 17-Mar. 12; mean residual 0".29
Residuals in arcseconds: 
260217 F52  .32-  .46-    260224 291  .82-  .21+    260305 106  .37+  .23-    
260217 F52  .09+  .02-    260224 H21  .02+  .22+    260305 106  .40+  .38+    
260217 F52  .39+  .26+    260224 H21  .29+  .11+    260305 106  .03-  .38+    
260223 V00  .03+  .18-    260225 I52  .50-  .89-    260306 F51  .25+  .54-    
260223 V00  .05+  .16+    260225 I52  .10+  .17+    260308 H01  .07-  .16-    
260223 V00  .11-  .14-    260225 I52  .10-  .01-    260308 H01  .06+  .03+    
260223 V00  .06-  .07+    260225 I52  .18-  .00     260309 M57  .17-  .13+    
260223 H01  .07+  .03-    260226 V00  .26+  .15-    260309 M57  .17-  .02+    
260223 H01  .26-  .14+    260226 V00  .07+  .00     260309 M57  .07+  .03-    
260223 H01  .20-  .16+    260226 V00  .05-  .12-    260312 H01  .36-  .02-    
260223 H01  .03-  .16+    260226 V00  .13+  .01-    260312 H01  .35-  .13+    
260224 291  .50-  .66+    260304 F52  .05+  .39+    260312 H01  .24-  .06-    
260224 291  .72-  .56+    260305 106  .10-  .56+    260312 H01  .33-  .11+    

Ephemerides (geocentric):
Date (UTC) HH   RA             Dec           delta  r     elong  mag " sig PA
---- --------  ------------   ------------  ------ ------ -----  --- --------
2026 03 17 14  07 25 57.796   +51 02 59.65  .40804 1.1764 106.2 22.2 .331 178
2026 03 17 15  07 25 27.934   +51 03 33.17  .40811 1.1758 106.1 22.2 .332 178
2026 03 17 16  07 24 58.081   +51 04 06.17  .40819 1.1752 106.0 22.2 .333 178
2026 03 17 17  07 24 28.238   +51 04 38.64  .40826 1.1746 105.9 22.2 .335 177
2026 03 17 18  07 23 58.404   +51 05 10.60  .40834 1.1740 105.8 22.2 .336 177
2026 03 17 19  07 23 28.581   +51 05 42.04  .40842 1.1734 105.7 22.2 .337 177
2026 03 17 20  07 22 58.767   +51 06 12.97  .40850 1.1728 105.6 22.2 .339 177
2026 03 17 21  07 22 28.964   +51 06 43.38  .40857 1.1722 105.5 22.2 .340 177
2026 03 17 22  07 21 59.171   +51 07 13.27  .40865 1.1716 105.3 22.2 .342 177
2026 03 17 23  07 21 29.390   +51 07 42.65  .40873 1.1710 105.2 22.2 .343 177
2026 03 18 00  07 20 59.620   +51 08 11.51  .40881 1.1704 105.1 22.2 .344 177
2026 03 18 01  07 20 29.861   +51 08 39.86  .40890 1.1698 105.0 22.2 .346 177
2026 03 18 02  07 20 00.114   +51 09 07.70  .40898 1.1692 104.9 22.2 .347 177
2026 03 18 03  07 19 30.380   +51 09 35.02  .40906 1.1686 104.8 22.2 .348 177
2026 03 18 04  07 19 00.657   +51 10 01.84  .40914 1.1680 104.7 22.2 .350 177
2026 03 18 05  07 18 30.947   +51 10 28.14  .40923 1.1674 104.6 22.2 .351 177
2026 03 18 06  07 18 01.250   +51 10 53.93  .40931 1.1667 104.4 22.2 .352 177
2026 03 18 07  07 17 31.567   +51 11 19.22  .40940 1.1661 104.3 22.2 .354 177
2026 03 18 08  07 17 01.896   +51 11 44.00  .40948 1.1655 104.2 22.2 .355 177
2026 03 18 09  07 16 32.239   +51 12 08.27  .40957 1.1649 104.1 22.2 .356 177
2026 03 18 10  07 16 02.596   +51 12 32.03  .40966 1.1643 104.0 22.2 .358 177
2026 03 18 11  07 15 32.967   +51 12 55.29  .40975 1.1637 103.9 22.2 .359 177
2026 03 18 12  07 15 03.353   +51 13 18.05  .40983 1.1631 103.8 22.2 .361 177
2026 03 18 13  07 14 33.753   +51 13 40.30  .40992 1.1625 103.7 22.2 .362 177
2026 03 18 14  07 14 04.168   +51 14 02.05  .41001 1.1619 103.5 22.2 .363 177
2026 03 18 15  07 13 34.598   +51 14 23.30  .41010 1.1613 103.4 22.2 .365 177
2026 03 18 16  07 13 05.043   +51 14 44.05  .41020 1.1607 103.3 22.2 .366 177
2026 03 18 17  07 12 35.505   +51 15 04.30  .41029 1.1601 103.2 22.3 .367 177
2026 03 18 18  07 12 05.982   +51 15 24.05  .41038 1.1595 103.1 22.3 .369 177
2026 03 18 19  07 11 36.475   +51 15 43.30  .41047 1.1589 103.0 22.3 .370 177
2026 03 18 20  07 11 06.985   +51 16 02.05  .41057 1.1583 102.9 22.3 .371 177
2026 03 18 21  07 10 37.511   +51 16 20.31  .41066 1.1577 102.8 22.3 .373 177
2026 03 18 22  07 10 08.054   +51 16 38.08  .41076 1.1570 102.7 22.3 .374 176
2026 03 18 23  07 09 38.614   +51 16 55.35  .41085 1.1564 102.5 22.3 .375 176
2026 03 19 00  07 09 09.192   +51 17 12.12  .41095 1.1558 102.4 22.3 .377 176
2026 03 19 01  07 08 39.787   +51 17 28.41  .41105 1.1552 102.3 22.3 .378 176
2026 03 19 02  07 08 10.401   +51 17 44.20  .41114 1.1546 102.2 22.3 .379 176
2026 03 19 03  07 07 41.032   +51 17 59.51  .41124 1.1540 102.1 22.3 .380 176
2026 03 19 04  07 07 11.681   +51 18 14.32  .41134 1.1534 102.0 22.3 .382 176
2026 03 19 05  07 06 42.349   +51 18 28.65  .41144 1.1528 101.9 22.3 .383 176
2026 03 19 06  07 06 13.036   +51 18 42.49  .41154 1.1522 101.8 22.3 .384 176
2026 03 19 07  07 05 43.742   +51 18 55.84  .41164 1.1516 101.7 22.3 .386 176
2026 03 19 08  07 05 14.467   +51 19 08.71  .41175 1.1509 101.5 22.3 .387 176
2026 03 19 09  07 04 45.212   +51 19 21.10  .41185 1.1503 101.4 22.3 .388 176
2026 03 19 10  07 04 15.976   +51 19 33.00  .41195 1.1497 101.3 22.3 .390 176
2026 03 19 11  07 03 46.760   +51 19 44.42  .41205 1.1491 101.2 22.3 .391 176
2026 03 19 12  07 03 17.564   +51 19 55.37  .41216 1.1485 101.1 22.3 .392 176
2026 03 19 13  07 02 48.389   +51 20 05.83  .41226 1.1479 101.0 22.3 .394 176